FW7894 Weather Reports


Display with metric or nautical units.
time (UTC)temp
F
wind
direction
speed
MPH
gust
MPH
rain 1hr
in
rain 24hr
in
rain mn
in
humidity
%
barometer
mb
20210923210122 74 298 3.0 8.0 0.00 0.00 0.00 52 1016.1
20210923204638 74 19 4.0 10.0 0.00 0.00 0.00 49 1016.1
20210923203139 74 306 4.0 13.0 0.00 0.00 0.00 51 1016.2
20210923201721 74 319 3.0 12.0 0.00 0.00 0.00 52 1016.1
20210923200119 74 19 6.0 12.0 0.00 0.00 0.00 49 1016.2
20210923194655 74 299 3.0 11.0 0.00 0.00 0.00 51 1016.3
20210923193107 74 34 4.0 11.0 0.00 0.00 0.00 49 1016.3
20210923191541 73 36 3.0 11.0 0.00 0.00 0.00 49 1016.6
20210923190053 73 45 4.0 11.0 0.00 0.00 0.00 53 1016.8
20210923184653 73 19 3.0 11.0 0.00 0.00 0.00 53 1017.0
20210923183049 72 12 5.0 11.0 0.00 0.00 0.00 49 1017.3
20210923181643 72 327 5.0 13.0 0.00 0.00 0.00 50 1017.5
20210923180117 71 338 3.0 12.0 0.00 0.00 0.00 55 1017.6
20210923174609 71 71 4.0 13.0 0.00 0.00 0.00 53 1017.8
20210923173109 71 300 5.0 13.0 0.00 0.00 0.00 55 1017.8
20210923171601 70 72 6.0 16.0 0.00 0.00 0.00 55 1017.9
20210923170102 70 360 5.0 14.0 0.00 0.00 0.00 55 1017.9
20210923164621 70 338 6.0 13.0 0.00 0.00 0.00 54 1017.9
20210923163043 69 30 5.0 13.0 0.00 0.00 0.00 56 1017.9
20210923161605 69 349 5.0 16.0 0.00 0.00 0.00 58 1017.9
20210923160108 68 331 5.0 14.0 0.00 0.00 0.00 59 1017.9
20210923154545 67 330 5.0 13.0 0.00 0.00 0.00 62 1018.2
20210923153055 66 336 5.0 15.0 0.00 0.00 0.00 67 1018.5
20210923151613 65 59 4.0 11.0 0.00 0.00 0.00 68 1018.5
20210923150106 64 352 4.0 11.0 0.00 0.00 0.00 71 1018.3
20210923144550 63 44 4.0 10.0 0.00 0.00 0.00 73 1018.5
20210923143128 62 22 3.0 12.0 0.00 0.00 0.00 75 1018.5
20210923141548 61 310 4.0 14.0 0.00 0.00 0.00 77 1018.5
20210923140404 61 336 5.0 12.0 0.00 0.00 0.00 78 1019.7
20210923140045 60 13 3.0 12.0 0.00 0.00 0.00 79 1018.3
20210923134626 60 333 4.0 11.0 0.00 0.00 0.00 78 1018.2
20210923134410 60 0 6.0 12.0 0.00 0.00 0.00 79 1019.6
20210923133907 60 358 5.0 12.0 0.00 0.00 0.00 79 1019.5
20210923133404 60 349 4.0 10.0 0.00 0.00 0.00 81 1019.5
20210923133154 59 27 3.0 12.0 0.00 0.00 0.00 80 1018.0
20210923132903 60 349 5.0 12.0 0.00 0.00 0.00 80 1019.5
20210923132557 60 339 3.0 10.0 0.00 0.00 0.00 81 1019.4
20210923132101 59 358 6.0 12.0 0.00 0.00 0.00 81 1019.4
20210923131559 59 25 6.0 14.0 0.00 0.00 0.00 81 1017.8
20210923131552 59 359 7.0 12.0 0.00 0.00 0.00 81 1019.4
20210923131055 59 343 5.0 14.0 0.00 0.00 0.00 83 1019.3
20210923130552 59 7 5.0 10.0 0.00 0.00 0.00 85 1019.3
20210923130109 58 344 4.0 13.0 0.00 0.00 0.00 84 1017.6
20210923130051 58 347 6.0 13.0 0.00 0.00 0.00 85 1019.2
20210923125550 58 332 5.0 9.0 0.00 0.00 0.00 85 1019.2
20210923125050 58 332 5.0 12.0 0.00 0.00 0.00 85 1019.1
20210923124643 57 334 5.0 12.0 0.00 0.00 0.00 85 1017.6
20210923124550 58 354 6.0 12.0 0.00 0.00 0.00 85 1019.1
20210923124051 58 321 5.0 12.0 0.00 0.00 0.00 86 1019.0
20210923123549 58 333 5.0 12.0 0.00 0.00 0.00 87 1019.0
20210923123055 57 352 3.0 11.0 0.00 0.00 0.00 89 1017.4
20210923123049 57 13 4.0 12.0 0.00 0.00 0.00 89 1019.0
20210923122549 57 321 4.0 8.0 0.00 0.00 0.00 89 1019.0
20210923122053 57 343 2.0 9.0 0.00 0.00 0.00 90 1019.0
20210923121549 57 349 5.0 12.0 0.00 0.00 0.00 90 1018.9
20210923121540 57 352 5.0 11.0 0.00 0.00 0.00 89 1017.4
20210923121050 57 358 5.0 8.0 0.00 0.00 0.00 90 1018.8
20210923120551 57 355 2.0 3.0 0.00 0.00 0.00 91 1018.8
20210923120129 56 53 2.0 6.0 0.00 0.00 0.00 91 1017.4
20210923120051 56 336 2.0 6.0 0.00 0.00 0.00 91 1018.8
20210923115550 56 331 2.0 3.0 0.00 0.00 0.00 92 1018.7
20210923115052 56 325 1.0 5.0 0.00 0.00 0.00 91 1018.6
20210923114552 56 322 2.0 3.0 0.00 0.00 0.00 91 1018.6
20210923114534 55 314 1.0 5.0 0.00 0.00 0.00 90 1017.3
20210923114056 56 327 3.0 5.0 0.00 0.00 0.00 90 1018.5
20210923113549 56 337 1.0 3.0 0.00 0.00 0.00 90 1018.4
20210923113059 56 342 2.0 6.0 0.00 0.00 0.00 89 1017.2
20210923113049 56 342 3.0 6.0 0.00 0.00 0.00 89 1018.4
20210923112551 56 339 2.0 6.0 0.00 0.00 0.00 89 1018.4
20210923112049 56 336 3.0 6.0 0.00 0.00 0.00 89 1018.5
20210923111550 56 329 3.0 8.0 0.00 0.00 0.00 88 1018.5
20210923111542 56 328 3.0 8.0 0.00 0.00 0.00 88 1017.3
20210923111050 56 2 2.0 7.0 0.00 0.00 0.00 88 1018.5
20210923110549 56 325 2.0 7.0 0.00 0.00 0.00 88 1018.4
20210923110106 56 318 3.0 10.0 0.00 0.00 0.00 87 1017.1
20210923110054 56 324 4.0 10.0 0.00 0.00 0.00 88 1018.3
20210923105553 56 340 2.0 5.0 0.00 0.00 0.00 88 1018.3
20210923105050 56 332 2.0 5.0 0.00 0.00 0.00 88 1018.4
20210923104552 55 321 2.0 6.0 0.00 0.00 0.00 89 1017.2
20210923104549 56 328 3.0 6.0 0.00 0.00 0.00 89 1018.4
20210923104054 55 308 1.0 5.0 0.00 0.00 0.00 90 1018.3
20210923103550 55 325 2.0 3.0 0.00 0.00 0.00 92 1018.3
20210923103110 55 0 1.0 4.0 0.00 0.00 0.00 91 1017.2
20210923103050 55 323 1.0 3.0 0.00 0.00 0.00 92 1018.4
20210923102549 55 296 0.0 3.0 0.00 0.00 0.00 93 1018.3
20210923102049 55 353 1.0 3.0 0.00 0.00 0.00 93 1018.3
20210923101549 55 311 0.0 1.0 0.00 0.00 0.00 93 1018.2
20210923101049 55 279 1.0 3.0 0.00 0.00 0.00 93 1018.2
20210923100549 55 303 0.0 0.0 0.00 0.00 0.00 92 1018.1
20210923100138 55 0 0.0 3.0 0.00 0.00 0.00 92 1016.9
20210923100049 56 306 0.0 1.0 0.00 0.00 0.00 92 1018.0
20210923095550 55 308 2.0 3.0 0.00 0.00 0.00 92 1018.0
20210923095049 55 302 1.0 3.0 0.00 0.00 0.00 92 1017.9
20210923094610 55 330 0.0 3.0 0.00 0.00 0.00 92 1016.8
20210923094549 55 321 1.0 3.0 0.00 0.00 0.00 92 1017.9
20210923094049 55 314 1.0 2.0 0.00 0.00 0.00 92 1018.0
20210923093550 55 315 0.0 2.0 0.00 0.00 0.00 92 1018.0
20210923093049 56 315 0.0 2.0 0.00 0.00 0.00 92 1018.0
20210923093040 55 0 0.0 3.0 0.00 0.00 0.00 91 1016.9
20210923092550 56 272 1.0 3.0 0.00 0.00 0.00 92 1018.1
20210923092049 56 273 1.0 3.0 0.00 0.00 0.00 91 1018.0
20210923091549 56 289 2.0 3.0 0.00 0.00 0.00 91 1017.9
20210923091050 56 306 0.0 2.0 0.00 0.00 0.00 91 1018.1
20210923090550 56 325 1.0 2.0 0.00 0.00 0.00 92 1018.0
20210923090127 55 317 1.0 3.0 0.00 0.00 0.00 92 1017.0
20210923090049 56 320 1.0 3.0 0.00 0.00 0.00 93 1018.1
20210923085557 56 300 1.0 2.0 0.00 0.00 0.00 94 1018.1
20210923085048 56 301 1.0 2.0 0.00 0.00 0.00 94 1018.0
20210923084620 56 301 0.0 2.0 0.00 0.00 0.00 94 1017.0
20210923084550 56 301 1.0 2.0 0.00 0.00 0.00 94 1018.1
20210923084049 56 298 1.0 2.0 0.00 0.00 0.00 94 1018.0
20210923083549 56 296 1.0 3.0 0.00 0.00 0.00 94 1018.1
20210923083049 56 285 2.0 3.0 0.00 0.00 0.00 94 1018.1
20210923083046 56 282 1.0 3.0 0.00 0.00 0.00 93 1017.0
20210923082550 57 274 1.0 3.0 0.00 0.00 0.00 94 1018.1
20210923082049 57 280 2.0 3.0 0.00 0.00 0.00 94 1018.0
20210923081549 56 266 0.0 2.0 0.00 0.00 0.00 92 1017.0
20210923081050 57 291 0.0 1.0 0.00 0.00 0.00 92 1018.2
20210923080550 57 291 1.0 2.0 0.00 0.00 0.00 92 1018.2
20210923080049 58 316 1.0 2.0 0.00 0.00 0.00 91 1018.2
20210923080042 57 0 0.0 3.0 0.00 0.00 0.00 91 1017.1
20210923075549 58 307 1.0 3.0 0.00 0.00 0.00 91 1018.3
20210923075049 58 307 1.0 3.0 0.00 0.00 0.00 90 1018.3
20210923074550 58 298 1.0 2.0 0.00 0.00 0.00 90 1018.3
20210923074537 57 298 0.0 2.0 0.00 0.00 0.00 90 1017.2
20210923074049 58 298 0.0 1.0 0.00 0.00 0.00 89 1018.3
20210923073548 58 298 0.0 2.0 0.00 0.00 0.00 88 1018.4
20210923073056 58 0 1.0 3.0 0.00 0.00 0.00 87 1017.3
20210923073050 59 298 1.0 3.0 0.00 0.00 0.00 88 1018.4
20210923072549 59 274 1.0 3.0 0.00 0.00 0.00 87 1018.4
20210923072049 59 321 2.0 3.0 0.00 0.00 0.00 86 1018.4
20210923071551 59 330 1.0 3.0 0.00 0.00 0.00 85 1018.5
20210923071545 59 352 1.0 4.0 0.00 0.00 0.00 85 1017.4
20210923071051 60 47 2.0 3.0 0.00 0.00 0.00 85 1018.5
20210923070549 60 332 1.0 3.0 0.00 0.00 0.00 85 1018.4
20210923070111 59 318 1.0 7.0 0.00 0.00 0.00 84 1017.5
20210923070049 60 321 1.0 3.0 0.00 0.00 0.00 85 1018.5
20210923065550 60 289 2.0 7.0 0.00 0.00 0.00 85 1018.5
20210923065049 60 323 2.0 3.0 0.00 0.00 0.00 86 1018.6
20210923064550 59 297 1.0 4.0 0.00 0.00 0.00 86 1017.5
20210923064049 60 329 1.0 3.0 0.00 0.00 0.00 86 1018.5
20210923063550 60 325 1.0 3.0 0.00 0.00 0.00 86 1018.5
20210923063057 60 336 1.0 4.0 0.00 0.00 0.00 85 1017.5
20210923063049 60 328 2.0 3.0 0.00 0.00 0.00 86 1018.6
20210923062549 60 345 0.0 3.0 0.00 0.00 0.00 86 1018.5
20210923062050 60 355 1.0 3.0 0.00 0.00 0.00 86 1018.5
20210923061613 60 336 1.0 5.0 0.00 0.00 0.00 85 1017.5
20210923061549 60 336 2.0 5.0 0.00 0.00 0.00 85 1018.5
20210923061050 60 8 1.0 3.0 0.00 0.00 0.00 86 1018.6
20210923060549 60 350 2.0 5.0 0.00 0.00 0.00 85 1018.6
20210923060121 60 0 2.0 5.0 0.00 0.00 0.00 85 1017.6
20210923060048 61 321 2.0 5.0 0.00 0.00 0.00 86 1018.5
20210923055549 61 349 2.0 3.0 0.00 0.00 0.00 85 1018.5
20210923055049 61 0 2.0 5.0 0.00 0.00 0.00 85 1018.6
20210923054548 61 351 2.0 5.0 0.00 0.00 0.00 85 1018.5
20210923054534 61 344 2.0 5.0 0.00 0.00 0.00 84 1017.6
20210923054048 61 20 2.0 5.0 0.00 0.00 0.00 84 1018.6
20210923053549 61 347 2.0 5.0 0.00 0.00 0.00 84 1018.6
20210923053048 62 24 2.0 3.0 0.00 0.00 0.00 84 1018.6
20210923053043 61 29 1.0 8.0 0.00 0.00 0.00 84 1017.6
20210923052548 62 9 3.0 7.0 0.00 0.00 0.00 84 1018.6
20210923052049 62 23 3.0 8.0 0.00 0.00 0.00 83 1018.6
20210923051559 61 35 3.0 9.0 0.00 0.00 0.00 82 1017.7
20210923051551 62 3 4.0 9.0 0.00 0.00 0.00 83 1018.6
20210923051049 62 6 3.0 9.0 0.00 0.00 0.00 83 1018.7
20210923050550 62 11 3.0 8.0 0.00 0.00 0.00 84 1018.7
20210923050048 62 352 3.0 7.0 0.00 0.00 0.00 84 1018.7
20210923050036 62 9 2.0 7.0 0.00 0.00 0.00 84 1017.6
20210923045549 62 6 2.0 6.0 0.00 0.00 0.00 84 1018.7
20210923045049 62 341 1.0 8.0 0.00 0.00 0.00 84 1018.7
20210923044622 62 75 2.0 9.0 0.00 0.00 0.00 84 1017.7
20210923044548 63 10 2.0 9.0 0.00 0.00 0.00 84 1018.7
20210923044048 63 2 3.0 9.0 0.00 0.00 0.00 83 1018.7
20210923043548 63 20 2.0 5.0 0.00 0.00 0.00 84 1018.7
20210923043118 62 343 2.0 7.0 0.00 0.00 0.00 83 1017.7
20210923043049 63 346 3.0 7.0 0.00 0.00 0.00 84 1018.6
20210923042549 63 346 2.0 6.0 0.00 0.00 0.00 84 1018.7
20210923042049 63 345 2.0 6.0 0.00 0.00 0.00 84 1018.6
20210923041623 63 360 3.0 9.0 0.00 0.00 0.00 84 1017.7
20210923041549 63 356 3.0 8.0 0.00 0.00 0.00 85 1018.6
20210923041049 63 332 2.0 8.0 0.00 0.00 0.00 85 1018.7
20210923040550 63 352 4.0 9.0 0.00 0.00 0.00 85 1018.7
20210923040154 62 44 3.0 10.0 0.00 0.00 0.00 86 1017.6
20210923040050 63 9 3.0 8.0 0.00 0.00 0.00 86 1018.6
20210923035548 62 336 2.0 10.0 0.00 0.00 0.00 88 1018.7
20210923035048 62 325 1.0 3.0 0.00 0.00 0.00 87 1018.8
20210923034551 62 325 1.0 3.0 0.00 0.00 0.00 87 1018.6
20210923034049 62 346 1.0 3.0 0.00 0.00 0.00 86 1018.7
20210923033548 62 314 2.0 3.0 0.00 0.00 0.00 86 1018.6
20210923033050 62 284 1.0 3.0 0.00 0.00 0.00 86 1018.7
20210923033043 62 279 1.0 4.0 0.00 0.00 0.00 86 1017.7
20210923032548 62 305 2.0 3.0 0.00 0.00 0.00 86 1018.7
20210923032049 62 310 2.0 3.0 0.00 0.00 0.00 85 1018.7
20210923031639 62 315 2.0 7.0 0.00 0.00 0.00 85 1017.6
20210923031549 62 308 2.0 5.0 0.00 0.00 0.00 85 1018.7
20210923031049 62 312 2.0 6.0 0.00 0.00 0.00 85 1018.6
20210923030549 62 319 3.0 8.0 0.00 0.00 0.00 85 1018.6
20210923030059 62 325 3.0 7.0 0.00 0.00 0.00 85 1017.5
20210923030049 62 323 3.0 8.0 0.00 0.00 0.00 85 1018.6
20210923025548 62 316 4.0 7.0 0.00 0.00 0.00 85 1018.4
20210923025050 62 314 3.0 5.0 0.00 0.00 0.00 85 1018.5
20210923024600 62 340 2.0 5.0 0.00 0.00 0.00 84 1017.5
20210923024549 62 317 3.0 5.0 0.00 0.00 0.00 85 1018.4
20210923024049 63 307 2.0 5.0 0.00 0.00 0.00 85 1018.4
20210923023549 63 328 2.0 5.0 0.00 0.00 0.00 85 1018.3
20210923023049 62 335 2.0 5.0 0.00 0.00 0.00 85 1017.2
20210923022549 62 323 3.0 5.0 0.00 0.00 0.00 85 1018.1
20210923022048 62 334 2.0 3.0 0.00 0.00 0.00 86 1018.1
20210923021638 62 327 1.0 3.0 0.00 0.00 0.00 85 1017.1
20210923021549 62 320 1.0 3.0 0.00 0.00 0.00 86 1018.0
20210923021049 62 337 1.0 2.0 0.00 0.00 0.00 86 1018.1
20210923020548 63 294 0.0 2.0 0.00 0.00 0.00 86 1018.1
20210923020103 62 0 0.0 1.0 0.00 0.00 0.00 85 1017.0
20210923020049 63 288 0.0 1.0 0.00 0.00 0.00 86 1018.0
20210923015549 63 288 0.0 1.0 0.00 0.00 0.00 85 1018.0
20210923015052 63 288 0.0 1.0 0.00 0.00 0.00 85 1018.0
20210923014627 63 0 0.0 2.0 0.00 0.00 0.00 84 1017.0
20210923014550 63 288 0.0 2.0 0.00 0.00 0.00 84 1018.0
20210923014049 64 326 0.0 0.0 0.00 0.00 0.00 84 1017.9
20210923013550 64 326 0.0 0.0 0.00 0.00 0.00 83 1017.9
20210923013051 64 326 0.0 2.0 0.00 0.00 0.00 82 1016.8
20210923012550 64 326 1.0 2.0 0.00 0.00 0.00 82 1017.7
20210923012050 65 323 0.0 1.0 0.00 0.00 0.00 82 1017.6
20210923011610 64 323 0.0 2.0 0.00 0.00 0.00 81 1016.5
20210923011550 65 321 1.0 2.0 0.00 0.00 0.00 81 1017.6
20210923011049 65 300 1.0 2.0 0.00 0.00 0.00 81 1017.5
20210923010549 65 313 2.0 3.0 0.00 0.00 0.00 80 1017.5
20210923010118 65 303 1.0 4.0 0.00 0.00 0.00 80 1016.5
20210923010049 65 303 2.0 3.0 0.00 0.00 0.00 80 1017.5
20210923005549 65 288 1.0 3.0 0.00 0.00 0.00 80 1017.5
20210923005049 66 298 2.0 3.0 0.00 0.00 0.00 79 1017.5
20210923004608 66 0 0.0 4.0 0.00 0.00 0.00 79 1016.4
20210923004548 66 311 1.0 3.0 0.00 0.00 0.00 79 1017.4
20210923004049 66 297 1.0 3.0 0.00 0.00 0.00 79 1017.4
20210923003548 66 298 2.0 3.0 0.00 0.00 0.00 79 1017.2
20210923003053 66 306 1.0 5.0 0.00 0.00 0.00 78 1016.2
20210923003048 67 310 2.0 3.0 0.00 0.00 0.00 78 1017.1
20210923002551 67 301 2.0 5.0 0.00 0.00 0.00 77 1017.2
20210923002048 67 306 2.0 3.0 0.00 0.00 0.00 77 1017.0
20210923001552 67 310 2.0 6.0 0.00 0.00 0.00 77 1016.1
20210923001549 68 302 2.0 6.0 0.00 0.00 0.00 77 1017.0
20210923001049 68 301 3.0 6.0 0.00 0.00 0.00 76 1017.0
20210923000548 68 308 3.0 3.0 0.00 0.00 0.00 75 1016.9
20210923000107 68 311 3.0 11.0 0.00 0.00 0.00 73 1016.0
20210923000050 69 318 4.0 9.0 0.00 0.00 0.00 74 1016.9
20210922235548 69 318 4.0 9.0 0.00 0.00 0.00 73 1016.8
20210922235050 69 317 3.0 8.0 0.00 0.00 0.00 72 1016.9
20210922234605 69 292 4.0 10.0 0.00 0.00 0.00 72 1015.9
20210922234548 69 307 4.0 8.0 0.00 0.00 0.00 72 1016.8
20210922234049 70 313 3.0 9.0 0.00 0.00 0.00 71 1016.8
20210922233554 70 322 3.0 10.0 0.00 0.00 0.00 71 1016.7
20210922233141 70 315 3.0 12.0 0.00 0.00 0.00 70 1015.7
20210922233049 70 315 3.0 8.0 0.00 0.00 0.00 70 1016.7
20210922232604 71 1 6.0 12.0 0.00 0.00 0.00 70 1016.6
20210922232048 71 319 3.0 8.0 0.00 0.00 0.00 70 1016.5
20210922231558 71 345 4.0 10.0 0.00 0.00 0.00 68 1015.7
20210922231548 72 336 4.0 10.0 0.00 0.00 0.00 68 1016.5
20210922231053 72 346 5.0 10.0 0.00 0.00 0.00 67 1016.5
20210922230557 72 316 2.0 12.0 0.00 0.00 0.00 67 1016.4
20210922230052 72 320 6.0 12.0 0.00 0.00 0.00 65 1016.3
20210922230043 72 309 5.0 13.0 0.00 0.00 0.00 66 1015.5
20210922225548 73 331 5.0 12.0 0.00 0.00 0.00 65 1016.3
20210922225049 73 326 2.0 13.0 0.00 0.00 0.00 66 1016.2
20210922224559 72 300 4.0 14.0 0.00 0.00 0.00 64 1015.5
20210922224550 73 350 6.0 12.0 0.00 0.00 0.00 65 1016.2
20210922224053 73 325 4.0 14.0 0.00 0.00 0.00 65 1016.3
20210922223548 73 356 5.0 15.0 0.00 0.00 0.00 65 1016.2
20210922223057 72 330 6.0 13.0 0.00 0.00 0.00 64 1015.3
20210922223048 73 342 6.0 14.0 0.00 0.00 0.00 64 1016.1
20210922222549 73 316 5.0 13.0 0.00 0.00 0.00 64 1016.2
20210922222050 73 328 5.0 12.0 0.00 0.00 0.00 64 1016.2
20210922221550 73 338 7.0 13.0 0.00 0.00 0.00 65 1015.3
20210922221048 74 340 7.0 13.0 0.00 0.00 0.00 65 1016.2
20210922220548 74 339 8.0 15.0 0.00 0.00 0.00 64 1016.1
20210922220135 73 319 6.0 16.0 0.00 0.00 0.00 64 1015.3
20210922220049 74 314 7.0 16.0 0.00 0.00 0.00 65 1016.0
20210922215549 74 332 9.0 14.0 0.00 0.00 0.00 64 1016.1
20210922215048 74 329 6.0 12.0 0.00 0.00 0.00 64 1016.2
20210922214605 73 38 6.0 20.0 0.00 0.00 0.00 64 1015.3
20210922214548 74 343 6.0 13.0 0.00 0.00 0.00 65 1016.1
20210922214049 74 317 10.0 20.0 0.00 0.00 0.00 63 1016.1
20210922213550 74 315 9.0 18.0 0.00 0.00 0.00 63 1016.1
20210922213128 73 309 12.0 22.0 0.00 0.00 0.00 62 1015.1
20210922213048 74 317 13.0 20.0 0.00 0.00 0.00 62 1016.0
20210922212548 74 324 8.0 14.0 0.00 0.00 0.00 63 1015.9
20210922212048 74 329 10.0 18.0 0.00 0.00 0.00 64 1015.9
20210922211549 74 341 7.0 18.0 0.00 0.00 0.00 64 1015.9
20210922211543 74 295 8.0 19.0 0.00 0.00 0.00 64 1015.0
20210922211049 74 316 11.0 20.0 0.00 0.00 0.00 65 1015.9